Weather in Bolshiye Kusty

Russia / Perm Krai     56°35′59″N   55°00′48″E
temp.,
°C
wind,
m/s
gust,
m/s
humid.,
%
clouds,
%
prec.,
mm/h
press.,
hPa
HPBL,
m
27 february, sat
sat2723:00−20se5139666 0.0 1017318
02:00−18se7159486 0.0 1014493
05:00−17se8169293 0.0 1011528
08:00−15se81495100 0.5 1007685
11:00−13se71294100 1.6 1005803
14:00−12se61093100 1.0 1004770
17:00−10se6991100 1.3 1004744
20:00−11e5995100 0.3 1004309
28 february, sun
sun2823:00−14e6109394 0.4 1004297
02:00−16ene5109388 0.1 1003275
05:00−16ne5109384 0.1 1004278
08:00−16ne5109381 0.1 1004293
11:00−13ne699185 0.1 1005428
14:00−11nne689099 0.1 1005579
17:00−11nne6989100 0.3 1007553
20:00−14nne6119195 0.1 1009355
1 march, mon
mon123:00−16nne599292 0.1 1012253
02:00−19nne479467 0.0 1014136
05:00−21nne479538 0.0 1016113
08:00−23nne47950 0.0 101899
11:00−19nne45920 0.0 1019246
14:00−14nne358924 0.0 1020379
17:00−13n348859 0.0 1020445
20:00−18nnw229685 0.0 102020
2 march, tue
tue223:00−21w1110050 0.0 102020
02:00−21sw1210055 0.0 101920
05:00−22ssw2310056 0.0 101820
08:00−23s4710084 0.0 1016118
11:00−19s699692 0.0 1013304
14:00−16s71093100 0.0 1011402
17:00−14s71194100 0.1 1008482
20:00−13s61294100 0.5 1007530
3 march, wed
wed323:00−13s51195100 0.8 1006476
02:00−13sse51095100 0.5 1004428
05:00−14sse5995100 0.9 1003351
08:00−14se4895100 0.6 1002290
11:00−12se3594100 1.3 1002293
14:00−9ese2390100 0.3 1002333
17:00−8nne2391100 0.4 1002340
20:00−10n3695100 0.1 1002164